Simultaneous Nadir Overpasses (SNOs) Predictions

Prediction of SNOs between NOAA-19 and TERRA Satellite Orbit:

Table of predicted SNOs for the next 14.0 days since TLE Epoch: 6/20/2020
Index Date (NOAA-19) Time (NOAA-19) Lat,Lon (NOAA-19) SZA (NOAA-19 ) Date (TERRA) Time (TERRA) Lat,Lon (TERRA) SZA (TERRA ) Distance(km) Time Diff (sec)
1 06/21/2020 19:45:54 -79.51, 91.94 122.65 06/21/2020 19:46:36 -79.52, 91.82 122.63 2.56 42
2 06/21/2020 20:36:52 79.49,-100.61 57.36 06/21/2020 20:36:02 79.52,-100.54 57.37 3.60 50
3 06/24/2020 01:19:10 79.52,-171.44 57.38 06/24/2020 01:20:19 79.54,-171.48 57.42 1.74 69
4 06/24/2020 02:10:12 -79.51, -4.06 122.62 06/24/2020 02:09:47 -79.51, -4.07 122.63 0.54 25
5 06/26/2020 07:43:27 79.51, 92.67 57.45 06/26/2020 07:43:30 79.52, 92.60 57.45 1.52 3
6 06/28/2020 13:16:48 -79.54,-170.79 122.46 06/28/2020 13:17:14 -79.54,-170.66 122.43 2.67 26
7 06/28/2020 14:07:44 79.51, -3.23 57.55 06/28/2020 14:06:41 79.50, -3.34 57.51 2.27 63
8 06/30/2020 18:50:02 79.55, -74.10 57.68 06/30/2020 18:50:57 79.55, -74.06 57.70 1.01 55
9 06/30/2020 19:41:05 -79.52, 93.43 122.32 06/30/2020 19:40:25 -79.52, 93.40 122.34 0.93 40
10 07/03/2020 00:23:32 -79.79, 20.04 122.17 07/03/2020 00:24:38 -79.68, 23.48 121.94 69.23 66




NCC Satellite Simultaneous Nadir Overpasses (SNOs) Prediction Service
